Regional Weather Roundup
Issued by NWS

Home | Current Version | Previous Version | Graphics & Text | Print | Product List | Glossary On
Versions: 1 2 3 4 5 6 7 8 9 10 11 12 13 14 15 16 17 18 19 20 21 22 23 24 25 26 27 28 29 30 31 32 33 34 35 36 37 38 39 40 41 42 43 44 45 46 47 48 49 50
962
ASUS44 KMEG 300310
RWRTN
TENNESSEE HOURLY STATE WEATHER ROUNDUP
NATIONAL WEATHER SERVICE MEMPHIS TN
1000 PM CDT THU SEP 29 2016

TNZ002-004-019-021-049-052-054-088>092-300400-
WEST TENNESSEE

CITY           SKY/WX    TMP DP  RH WIND       PRES   REMARKS
MEMPHIS INTL   PTCLDY    66  53  63 NE6       30.15S
NWS MEMPHIS      N/A     60 N/A N/A MISG        N/A
JACKSON          N/A    N/A N/A N/A MISG      30.15S
DYERSBURG      CLOUDY   N/A N/A N/A MISG        N/A
UNION CITY     PTCLDY    57  55  94 NW5       30.13F
PARIS          CLEAR     55  52  88 CALM      30.14S
HUNTINGDON     PTCLDY    57  55  94 CALM      30.12F
LEXINGTON      PTCLDY    54  54 100 CALM      30.13S
$$

TNZ008-025-027-028-033-062-065-066-300400-
NORTH MIDDLE TENNESSEE

CITY           SKY/WX    TMP DP  RH WIND       PRES   REMARKS
NASHVILLE      CLEAR     54  51  90 W3        30.12F
PORTLAND       MOCLDY    50  50 100 S5        30.11S
CLARKSVILLE    CLOUDY    55  54  96 CALM      30.12S
SMYRNA         CLEAR     54  52  93 CALM      30.13S
COOKEVILLE     CLEAR     48  48 100 SE3       30.11S
GALLATIN       CLEAR     52  52 100 CALM      30.14S FOG
CROSSVILLE     CLEAR     48  46  93 W3        30.12S
$$

TNZ061-075-076-078-094-096-097-300400-
SOUTH MIDDLE TENNESSEE

CITY           SKY/WX    TMP DP  RH WIND       PRES   REMARKS
FAYETTEVILLE   CLOUDY    54  50  87 CALM      30.12S
TULLAHOMA      CLEAR     54  50  87 CALM      30.13S
WINCHESTER     MOCLDY    57  52  82 CALM      30.12F
MCMINNVILLE    PTCLDY    52  52 100 CALM      30.12S
COLUMBIA       PTCLDY   N/A N/A N/A CALM      30.12S
SHELBYVILLE    CLEAR     54  52  94 CALM      30.13S
$$

TNZ017-018-042-046-047-300400-
NORTHEAST TENNESSEE

CITY           SKY/WX    TMP DP  RH WIND       PRES   REMARKS
TRI CITIES     CLOUDY    59  55  87 CALM      30.08F
ELIZABETHTON     N/A     59  57  94 CALM      30.08S
$$

TNZ012-013-036-069-073-074-300400-
CENTRAL EAST TENNESSEE

CITY           SKY/WX    TMP DP  RH WIND       PRES   REMARKS
KNOXVILLE      PTCLDY    60  47  61 N6        30.08S
OAK RIDGE      CLEAR     56  47  71 CALM      30.10F
DOWNTOWN KNOXV MOCLDY    59  52  77 CALM      30.09S
GATLINBURG     CLOUDY    61  48  63 W3        30.08S
MORRISTOWN     CLOUDY    61  50  67 CALM      30.07S
JACKSBORO      CLEAR     52  48  87 CALM      30.12F
$$

TNZ083-085-099-300400-
SOUTHEAST TENNESSEE

CITY           SKY/WX    TMP DP  RH WIND       PRES   REMARKS
CHATTANOOGA    MOCLDY    61  46  57 NW8       30.10R
$$

SKY/WX REPORTED AS FAIR MEANS FEW OR NO CLOUDS BELOW
12 THOUSAND FEET.





USA.gov is the U.S. government's official web portal to all federal, state and local government web resources and services.